N2PUI Weather Reports


Display with metric or nautical units.
time (UTC)temp
F
wind
direction
speed
MPH
gust
MPH
rain 1hr
in
rain 24hr
in
rain mn
in
humidity
%
barometer
mb
20260503225317 55 201 1.0 1.0 0.00 0.00 0.00 44 1010.5
20260503224813 55 242 2.0 2.0 0.00 0.00 0.00 43 1010.5
20260503224311 55 287 5.0 7.0 0.00 0.00 0.00 43 1010.4
20260503223808 55 149 1.0 1.0 0.00 0.00 0.00 42 1010.7
20260503223306 56 312 4.0 6.0 0.00 0.00 0.00 42 1010.4
20260503222801 55 261 5.0 6.0 0.00 0.00 0.00 41 1010.4
20260503222300 56 313 7.0 9.0 0.00 0.00 0.00 41 1010.6
20260503221757 56 292 8.0 9.0 0.00 0.00 0.00 41 1010.6
20260503221255 57 286 7.0 7.0 0.00 0.00 0.00 40 1010.8
20260503220751 56 265 3.0 3.0 0.00 0.00 0.00 41 1010.7
20260503220249 56 317 3.0 3.0 0.00 0.00 0.00 41 1010.7
20260503215745 56 320 8.0 10.0 0.00 0.00 0.00 41 1010.8
20260503215242 56 275 7.0 9.0 0.00 0.00 0.00 42 1011.1
20260503214740 55 243 5.0 6.0 0.00 0.00 0.00 42 1010.9
20260503214237 55 276 7.0 9.0 0.00 0.00 0.00 43 1010.8
20260503213735 55 273 8.0 10.0 0.00 0.00 0.00 43 1010.8
20260503213232 54 283 7.0 9.0 0.00 0.00 0.00 43 1010.9
20260503212729 55 248 4.0 6.0 0.00 0.00 0.00 44 1010.8
20260503212227 55 324 5.0 5.0 0.00 0.00 0.00 44 1010.7
20260503211724 55 277 3.0 5.0 0.00 0.00 0.00 44 1010.8
20260503211220 54 238 5.0 7.0 0.00 0.00 0.00 45 1010.9
20260503210715 53 336 4.0 5.0 0.00 0.00 0.00 45 1010.9
20260503210213 53 331 9.0 9.0 0.00 0.00 0.00 45 1011.0
20260503205708 53 304 4.0 5.0 0.00 0.00 0.00 46 1010.9
20260503205205 53 282 3.0 3.0 0.00 0.00 0.00 45 1011.1
20260503204701 53 292 8.0 14.0 0.00 0.00 0.00 43 1010.7
20260503204159 53 259 6.0 7.0 0.00 0.00 0.00 43 1010.7
20260503203656 53 304 6.0 9.0 0.00 0.00 0.00 42 1010.7
20260503203154 55 256 7.0 9.0 0.00 0.00 0.00 41 1010.9
20260503202650 54 258 5.0 8.0 0.00 0.00 0.00 41 1010.7
20260503202148 55 258 3.0 6.0 0.00 0.00 0.00 40 1010.8
20260503201646 54 250 4.0 7.0 0.00 0.00 0.00 41 1010.8
20260503201143 55 334 4.0 5.0 0.00 0.00 0.00 40 1011.0
20260503200639 55 277 6.0 8.0 0.00 0.00 0.00 39 1010.9
20260503200136 54 305 5.0 7.0 0.00 0.00 0.00 40 1010.9
20260503195633 54 227 1.0 2.0 0.00 0.00 0.00 41 1010.9
20260503195130 53 291 7.0 8.0 0.00 0.00 0.00 40 1010.8
20260503194627 53 212 5.0 6.0 0.00 0.00 0.00 40 1011.3
20260503194122 53 268 4.0 5.0 0.00 0.00 0.00 40 1011.0
20260503193620 53 317 6.0 7.0 0.00 0.00 0.00 40 1011.3
20260503193115 54 216 5.0 7.0 0.00 0.00 0.00 40 1011.2
20260503192611 54 312 6.0 7.0 0.00 0.00 0.00 40 1011.4
20260503192106 53 18 4.0 6.0 0.00 0.00 0.00 40 1011.4
20260503191558 53 330 4.0 5.0 0.00 0.00 0.00 40 1011.5
20260503191054 55 301 15.0 18.0 0.00 0.00 0.00 38 1011.4
20260503190551 53 254 9.0 10.0 0.00 0.00 0.00 38 1011.4
20260503190048 53 285 6.0 8.0 0.00 0.00 0.00 39 1011.6
20260503185539 53 341 6.0 7.0 0.00 0.00 0.00 39 1011.8
20260503185039 53 269 8.0 11.0 0.00 0.00 0.00 39 1011.5
20260503184535 53 232 3.0 3.0 0.00 0.00 0.00 39 1011.3
20260503184032 54 31 7.0 9.0 0.00 0.00 0.00 38 1011.5
20260503183528 53 290 10.0 11.0 0.00 0.00 0.00 38 1011.7
20260503183026 54 303 6.0 9.0 0.00 0.00 0.00 37 1011.8
20260503182524 53 175 2.0 3.0 0.00 0.00 0.00 39 1011.8
20260503182022 52 305 15.0 21.0 0.00 0.00 0.00 38 1012.0
20260503181518 52 309 8.0 10.0 0.00 0.00 0.00 38 1011.8
20260503181015 54 337 6.0 10.0 0.00 0.00 0.00 40 1012.1
20260503180512 53 125 3.0 6.0 0.00 0.00 0.00 40 1012.1
20260503180009 53 336 5.0 8.0 0.00 0.00 0.00 39 1011.9
20260503175507 53 199 2.0 2.0 0.00 0.00 0.00 40 1012.2
20260503175003 53 235 6.0 9.0 0.00 0.00 0.00 40 1012.1
20260503174501 52 207 3.0 5.0 0.00 0.00 0.00 39 1012.4
20260503173956 53 290 9.0 11.0 0.00 0.00 0.00 39 1012.6
20260503173452 52 229 7.0 8.0 0.00 0.00 0.00 38 1012.4
20260503172949 51 300 6.0 8.0 0.00 0.00 0.00 39 1012.7
20260503172446 51 280 9.0 15.0 0.00 0.00 0.00 40 1012.8
20260503171943 50 318 9.0 13.0 0.00 0.00 0.00 40 1012.6
20260503171439 50 280 12.0 20.0 0.00 0.00 0.00 41 1012.4
20260503170937 50 292 5.0 9.0 0.00 0.00 0.00 40 1012.7
20260503170433 50 269 7.0 9.0 0.00 0.00 0.00 40 1012.9
20260503150826 47 187 2.0 3.0 0.00 0.00 0.00 43 1013.6
20260503150321 47 271 4.0 5.0 0.00 0.00 0.00 44 1013.7
20260503140246 46 274 9.0 14.0 0.00 0.00 0.00 44 1013.8
20260503131215 42 191 2.0 3.0 0.00 0.00 0.00 54 1013.9
20260503130713 41 260 9.0 10.0 0.00 0.00 0.00 55 1013.9
20260503130210 42 225 5.0 7.0 0.00 0.00 0.00 56 1014.1
20260503120136 40 175 2.0 2.0 0.00 0.00 0.00 69 1014.2
20260503110604 38 316 3.0 3.0 0.00 0.00 0.00 75 1013.7
20260503090450 38 321 3.0 5.0 0.00 0.00 0.00 74 1012.9
20260503081417 38 189 0.0 0.0 0.00 0.00 0.00 74 1013.0
20260503080914 38 294 3.0 3.0 0.00 0.00 0.00 74 1013.1
20260503080410 38 161 0.0 0.0 0.00 0.00 0.00 74 1013.3
20260503072847 38 311 3.0 3.0 0.00 0.00 0.00 74 1013.3
20260503072344 38 268 2.0 2.0 0.00 0.00 0.00 74 1012.9
20260503071840 38 191 0.0 0.0 0.00 0.00 0.00 74 1013.1
20260503071337 38 214 1.0 2.0 0.00 0.00 0.00 74 1013.1
20260503070833 38 301 4.0 5.0 0.00 0.00 0.00 74 1013.0
20260503070332 38 197 1.0 1.0 0.00 0.00 0.00 74 1012.8
20260503060256 38 339 2.0 2.0 0.00 0.00 0.00 75 1013.6
20260503054744 38 187 0.0 1.0 0.00 0.00 0.00 75 1013.5
20260503054240 38 152 0.0 0.0 0.00 0.00 0.00 76 1013.6
20260503053738 38 204 1.0 1.0 0.00 0.00 0.00 76 1013.5
20260503053237 38 212 1.0 1.0 0.00 0.00 0.00 76 1013.5
20260503052733 38 166 1.0 1.0 0.00 0.00 0.00 76 1014.0
20260503052230 38 192 1.0 1.0 0.00 0.00 0.00 76 1014.0
20260503051724 38 167 0.0 0.0 0.00 0.00 0.00 75 1013.9
20260503051223 38 215 2.0 2.0 0.00 0.00 0.00 76 1013.9
20260503050719 38 196 1.0 1.0 0.00 0.00 0.00 76 1013.9
20260503050215 38 310 3.0 3.0 0.00 0.00 0.00 76 1014.3
20260503045713 38 169 0.0 0.0 0.00 0.00 0.00 76 1014.1
20260503045211 37 218 1.0 1.0 0.00 0.00 0.00 76 1014.1
20260503044707 37 148 0.0 1.0 0.00 0.00 0.00 76 1014.3
20260503044204 37 148 0.0 0.0 0.00 0.00 0.00 75 1014.2
20260503043701 37 148 0.0 0.0 0.00 0.00 0.00 75 1014.2
20260503043159 37 148 0.0 0.0 0.00 0.00 0.00 75 1014.3
20260503042654 37 148 0.0 0.0 0.00 0.00 0.00 74 1014.5
20260503042151 38 148 0.0 0.0 0.00 0.00 0.00 74 1014.4
20260503041647 38 148 0.0 0.0 0.00 0.00 0.00 74 1014.1
20260503041145 38 141 0.0 0.0 0.00 0.00 0.00 74 1014.3
20260503040642 38 136 0.0 0.0 0.00 0.00 0.00 73 1014.3
20260503040140 38 125 1.0 2.0 0.00 0.00 0.00 73 1014.3
20260503035636 38 9 3.0 3.0 0.00 0.00 0.00 73 1014.3
20260503035134 38 109 1.0 1.0 0.00 0.00 0.00 72 1014.4
20260503034631 38 168 0.0 0.0 0.00 0.00 0.00 72 1014.3
20260503034128 38 125 1.0 1.0 0.00 0.00 0.00 72 1014.3
20260503033625 38 216 1.0 2.0 0.00 0.00 0.00 71 1014.3
20260503033122 39 144 0.0 1.0 0.00 0.00 0.00 71 1014.3
20260503032620 39 185 1.0 1.0 0.00 0.00 0.00 71 1014.4
20260503032119 39 27 1.0 1.0 0.00 0.00 0.00 71 1014.5
20260503031616 39 196 1.0 1.0 0.00 0.00 0.00 71 1014.3
20260503031114 39 306 3.0 3.0 0.00 0.00 0.00 70 1014.3
20260503030609 39 292 2.0 2.0 0.00 0.00 0.00 70 1014.5
20260503030106 39 196 1.0 1.0 0.00 0.00 0.00 70 1014.4
20260503025603 39 177 0.0 0.0 0.00 0.00 0.00 70 1014.4
20260503025101 40 181 1.0 1.0 0.00 0.00 0.00 70 1014.4
20260503024557 40 231 1.0 1.0 0.00 0.00 0.00 70 1014.5
20260503024054 40 317 5.0 7.0 0.00 0.00 0.00 69 1014.5
20260503023551 40 198 1.0 1.0 0.00 0.00 0.00 69 1014.7
20260503023048 40 234 2.0 2.0 0.00 0.00 0.00 69 1014.3
20260503022544 40 355 0.0 0.0 0.00 0.00 0.00 69 1014.4
20260503022039 40 244 3.0 3.0 0.00 0.00 0.00 69 1014.7
20260503021536 39 65 2.0 2.0 0.00 0.00 0.00 69 1014.4
20260503021033 40 156 0.0 0.0 0.00 0.00 0.00 68 1014.7
20260503020530 40 220 1.0 2.0 0.00 0.00 0.00 68 1014.5
20260503020027 40 183 1.0 1.0 0.00 0.00 0.00 67 1014.6
20260503015524 40 191 0.0 0.0 0.00 0.00 0.00 66 1014.5
20260503015021 41 294 1.0 2.0 0.00 0.00 0.00 66 1014.6
20260503014517 41 219 2.0 2.0 0.00 0.00 0.00 65 1014.5
20260503014015 41 231 1.0 1.0 0.00 0.00 0.00 65 1014.5
20260503013512 41 236 2.0 2.0 0.00 0.00 0.00 65 1014.3
20260503013010 41 217 2.0 2.0 0.00 0.00 0.00 65 1014.4
20260503012507 41 194 0.0 1.0 0.00 0.00 0.00 64 1014.3
20260503012003 41 298 2.0 3.0 0.00 0.00 0.00 64 1014.3
20260503011500 41 317 2.0 2.0 0.00 0.00 0.00 63 1014.5
20260503010957 41 281 3.0 6.0 0.00 0.00 0.00 63 1014.3
20260503010453 41 282 3.0 3.0 0.00 0.00 0.00 63 1014.2
20260503005951 42 216 1.0 2.0 0.00 0.00 0.00 65 1014.3
20260503005448 42 300 4.0 6.0 0.00 0.00 0.00 65 1014.1
20260503004944 42 273 2.0 2.0 0.00 0.00 0.00 64 1014.1
20260503004441 42 281 3.0 3.0 0.00 0.00 0.00 63 1013.8
20260503003939 42 280 3.0 3.0 0.00 0.00 0.00 62 1013.9
20260503003436 43 206 1.0 1.0 0.00 0.00 0.00 61 1014.1
20260503002933 43 294 4.0 5.0 0.00 0.00 0.00 60 1013.9
20260503002430 43 206 1.0 1.0 0.00 0.00 0.00 59 1014.0
20260503001926 43 266 3.0 3.0 0.00 0.00 0.00 58 1014.1
20260503001423 43 44 2.0 3.0 0.00 0.00 0.00 57 1013.9
20260503000921 43 291 4.0 5.0 0.00 0.00 0.00 57 1013.9
20260503000417 43 301 6.0 7.0 0.00 0.00 0.00 56 1013.8
20260502235914 43 210 2.0 2.0 0.00 0.00 0.00 56 1013.8
20260502235411 44 296 5.0 6.0 0.00 0.00 0.00 56 1013.8
20260502234909 44 288 3.0 5.0 0.00 0.00 0.00 56 1013.8
20260502234405 44 210 1.0 2.0 0.00 0.00 0.00 56 1013.7
20260502233902 44 6 3.0 3.0 0.00 0.00 0.00 55 1013.9
20260502233357 44 323 3.0 5.0 0.00 0.00 0.00 55 1013.7
20260502232855 44 179 1.0 1.0 0.00 0.00 0.00 54 1013.4
20260502232351 44 189 2.0 2.0 0.00 0.00 0.00 54 1013.8
20260502231848 44 260 1.0 2.0 0.00 0.00 0.00 53 1013.7
20260502231346 44 237 3.0 3.0 0.00 0.00 0.00 53 1013.8
20260502230844 45 226 1.0 2.0 0.00 0.00 0.00 54 1013.5
20260502230342 45 289 1.0 1.0 0.00 0.00 0.00 54 1013.5
20260502225838 45 276 3.0 3.0 0.00 0.00 0.00 52 1013.4